TimeCST,TemperatureF,Dew PointF,Humidity,Sea Level PressureIn,VisibilityMPH,Wind Direction,Wind SpeedMPH,Gust SpeedMPH,PrecipitationIn,Events,Conditions,WindDirDegrees,DateUTC
12:15 AM,48.2,46.4,93,29.84,4.0,ENE,16.1,21.9,0.01,,Drizzle,70,2011-11-09 06:15:00
12:35 AM,48.2,46.4,93,29.83,4.0,ENE,12.7,17.3,0.01,,Light Drizzle,70,2011-11-09 06:35:00
12:55 AM,48.2,46.4,93,29.82,4.0,ENE,12.7,-,0.02,,Drizzle,60,2011-11-09 06:55:00
1:15 AM,48.2,46.4,93,29.81,5.0,ENE,10.4,-,0.01,,Light Drizzle,70,2011-11-09 07:15:00
1:35 AM,48.2,46.4,93,29.80,7.0,ENE,13.8,-,0.01,,Overcast,70,2011-11-09 07:35:00
1:55 AM,48.2,46.4,93,29.78,5.0,ENE,13.8,-,0.01,,Overcast,60,2011-11-09 07:55:00
2:15 AM,48.2,46.4,93,29.77,3.0,ENE,13.8,-,N/A,,Drizzle,70,2011-11-09 08:15:00
2:35 AM,48.2,46.4,93,29.75,3.0,ENE,13.8,18.4,0.03,,Heavy Drizzle,70,2011-11-09 08:35:00
2:55 AM,48.2,46.4,93,29.73,7.0,ENE,16.1,19.6,0.03,,Overcast,60,2011-11-09 08:55:00
3:15 AM,50.0,48.2,94,29.71,7.0,ENE,12.7,-,0.01,Rain,Light Rain,60,2011-11-09 09:15:00
3:35 AM,50.0,48.2,94,29.66,4.0,ENE,17.3,-,0.08,Rain,Light Rain,60,2011-11-09 09:35:00
3:55 AM,50.0,48.2,94,29.64,2.5,ENE,16.1,-,0.20,Rain,Light Rain,60,2011-11-09 09:55:00
4:15 AM,50.0,48.2,94,29.63,4.0,ENE,15.0,-,0.03,Rain,Rain,70,2011-11-09 10:15:00
4:35 AM,50.0,48.2,94,29.62,2.0,ENE,15.0,-,N/A,,Drizzle,70,2011-11-09 10:35:00
4:55 AM,50.0,48.2,94,29.60,2.5,ENE,12.7,-,0.06,,Drizzle,70,2011-11-09 10:55:00
5:15 AM,51.8,50.0,94,29.57,2.5,East,11.5,-,0.01,,Drizzle,80,2011-11-09 11:15:00
5:35 AM,51.8,50.0,94,29.56,2.0,East,9.2,-,0.02,,Drizzle,90,2011-11-09 11:35:00
5:55 AM,53.6,51.8,94,29.54,4.0,ESE,6.9,-,0.03,,Overcast,110,2011-11-09 11:55:00
6:15 AM,57.2,55.4,94,29.52,3.0,SE,11.5,-,0.02,Rain,Rain,140,2011-11-09 12:15:00
6:35 AM,59.0,57.2,94,29.51,3.0,South,12.7,18.4,0.08,Rain,Heavy Rain,170,2011-11-09 12:35:00
6:55 AM,59.0,59.0,100,29.52,4.0,SSW,13.8,-,0.16,Rain,Heavy Rain,200,2011-11-09 12:55:00
7:15 AM,59.0,57.2,94,29.53,5.0,SW,21.9,29.9,0.05,Rain,Light Rain,230,2011-11-09 13:15:00
7:35 AM,-9999,-9999,N/A,-9999,-9999.0,North,-9999.0,-,N/A,,Unknown,0,2011-11-09 13:35:00
7:55 AM,-9999,-9999,N/A,-9999,-9999.0,North,-9999.0,-,N/A,,Unknown,0,2011-11-09 13:55:00
8:15 AM,51.8,50.0,94,29.54,10.0,WNW,11.5,-,N/A,,Overcast,290,2011-11-09 14:15:00
8:55 AM,49.3,47.3,93,29.55,10.0,NW,12.7,-,N/A,,Overcast,320,2011-11-09 14:55:00
9:15 AM,48.7,46.8,93,29.58,10.0,West,9.2,-,N/A,,Overcast,270,2011-11-09 15:15:00
9:35 AM,48.4,46.4,93,29.59,1.8,West,12.7,17.3,N/A,Rain,Rain,270,2011-11-09 15:35:00
9:55 AM,47.5,45.3,92,29.60,1.5,West,21.9,27.6,N/A,,Drizzle,270,2011-11-09 15:55:00
10:15 AM,45.5,43.3,92,29.63,4.0,West,24.2,33.4,N/A,,Overcast,270,2011-11-09 16:15:00
10:35 AM,43.9,41.7,92,29.65,2.5,West,26.5,38.0,0.01,,Overcast,280,2011-11-09 16:35:00
10:55 AM,42.4,40.1,91,29.67,5.0,WNW,23.0,34.5,0.01,,Light Drizzle,290,2011-11-09 16:55:00
11:15 AM,41.5,39.2,91,29.68,5.0,WNW,27.6,39.1,N/A,,Overcast,290,2011-11-09 17:15:00
11:35 AM,41.0,38.7,91,29.69,10.0,WNW,32.2,41.4,N/A,,Overcast,300,2011-11-09 17:35:00
11:55 AM,41.5,38.7,89,29.71,10.0,WNW,28.8,42.6,N/A,,Overcast,300,2011-11-09 17:55:00
12:15 PM,41.5,38.1,88,29.72,10.0,NW,28.8,41.4,N/A,,Overcast,310,2011-11-09 18:15:00
12:35 PM,41.5,37.9,87,29.75,10.0,WNW,26.5,36.8,N/A,,Overcast,300,2011-11-09 18:35:00
12:55 PM,41.5,37.8,86,29.77,10.0,NW,27.6,39.1,N/A,,Overcast,310,2011-11-09 18:55:00
1:15 PM,41.5,37.2,85,29.80,10.0,WNW,26.5,33.4,N/A,,Overcast,300,2011-11-09 19:15:00
1:35 PM,40.5,36.7,86,29.82,10.0,WNW,21.9,31.1,N/A,,Overcast,290,2011-11-09 19:35:00
1:55 PM,40.6,36.5,85,29.84,7.0,WNW,25.3,33.4,N/A,,Overcast,300,2011-11-09 19:55:00
2:15 PM,41.5,37.0,84,29.85,10.0,WNW,25.3,35.7,N/A,,Overcast,300,2011-11-09 20:15:00
2:35 PM,41.9,37.4,84,29.87,10.0,WNW,24.2,34.5,N/A,,Overcast,300,2011-11-09 20:35:00
2:55 PM,41.9,37.4,84,29.89,10.0,WNW,23.0,32.2,N/A,,Overcast,300,2011-11-09 20:55:00
3:15 PM,42.1,36.9,82,29.90,10.0,WNW,26.5,38.0,N/A,,Overcast,300,2011-11-09 21:15:00
3:35 PM,41.9,36.7,82,29.92,10.0,WNW,23.0,33.4,N/A,,Overcast,300,2011-11-09 21:35:00
3:55 PM,42.1,36.7,81,29.94,10.0,WNW,19.6,29.9,N/A,,Overcast,290,2011-11-09 21:55:00
4:15 PM,42.3,36.7,81,29.96,10.0,WNW,20.7,27.6,N/A,,Overcast,290,2011-11-09 22:15:00
4:35 PM,42.3,36.3,79,29.98,10.0,WNW,15.0,23.0,N/A,,Overcast,290,2011-11-09 22:35:00
4:55 PM,42.3,35.4,77,29.99,10.0,WNW,19.6,26.5,N/A,,Overcast,290,2011-11-09 22:55:00
5:15 PM,42.3,35.6,77,30.00,10.0,West,12.7,20.7,N/A,,Overcast,280,2011-11-09 23:15:00
5:35 PM,42.8,35.6,76,30.00,10.0,West,13.8,19.6,N/A,,Overcast,280,2011-11-09 23:35:00
5:55 PM,41.5,34.9,77,30.01,10.0,West,11.5,-,N/A,,Scattered Clouds,270,2011-11-09 23:55:00
6:15 PM,40.8,34.9,79,30.01,10.0,West,11.5,-,N/A,,Clear,260,2011-11-10 00:15:00
6:35 PM,41.2,34.7,78,30.01,10.0,West,10.4,-,N/A,,Clear,270,2011-11-10 00:35:00
6:55 PM,40.8,34.0,77,30.01,10.0,West,13.8,-,N/A,,Clear,260,2011-11-10 00:55:00
7:15 PM,39.9,33.4,78,30.01,10.0,West,10.4,-,N/A,,Clear,260,2011-11-10 01:15:00
7:35 PM,41.4,33.8,74,30.01,10.0,WSW,11.5,-,N/A,,Clear,250,2011-11-10 01:35:00
7:55 PM,41.0,33.8,76,30.00,10.0,West,13.8,-,N/A,,Clear,260,2011-11-10 01:55:00
8:15 PM,41.5,33.6,73,30.01,10.0,WSW,12.7,-,N/A,,Scattered Clouds,250,2011-11-10 02:15:00
8:35 PM,41.9,34.0,73,30.01,10.0,WSW,12.7,-,N/A,,Clear,250,2011-11-10 02:35:00
8:55 PM,41.9,34.5,75,30.01,10.0,West,15.0,-,N/A,,Clear,260,2011-11-10 02:55:00
9:15 PM,41.9,34.5,75,30.02,10.0,WSW,13.8,-,N/A,,Clear,250,2011-11-10 03:15:00
9:35 PM,41.5,34.7,77,30.02,10.0,West,15.0,20.7,N/A,,Clear,260,2011-11-10 03:35:00
9:55 PM,41.5,35.1,78,30.02,10.0,West,13.8,-,N/A,,Clear,270,2011-11-10 03:55:00
10:15 PM,40.5,34.3,79,30.03,10.0,West,15.0,20.7,N/A,,Clear,270,2011-11-10 04:15:00
10:35 PM,41.5,33.4,73,30.03,10.0,West,15.0,21.9,N/A,,Clear,280,2011-11-10 04:35:00
10:55 PM,41.5,33.6,73,30.03,10.0,West,12.7,20.7,N/A,,Clear,280,2011-11-10 04:55:00
11:15 PM,40.5,32.9,74,30.02,10.0,West,12.7,19.6,N/A,,Clear,280,2011-11-10 05:15:00
11:35 PM,40.1,32.2,73,30.02,10.0,WNW,13.8,18.4,N/A,,Clear,290,2011-11-10 05:35:00
11:55 PM,39.6,32.0,74,30.02,10.0,West,11.5,18.4,N/A,,Clear,280,2011-11-10 05:55:00